Del Bajio, Mexico

9:36 AM CDT on August 25, 2016 (GMT -0500)
De Guanajuato International

Weather History for MMLO - October, 2012

Change the Weather History Date:

Monday, October 1, 2012

  Actual Average Record
Temperature  
Mean Temperature 73 °F -  
Max Temperature 86 °F 79 °F 89 °F (2005)
Min Temperature 60 °F 55 °F 42 °F (2008)
Cooling Degree Days 8    
Growing Degree Days 23 (Base 50)    
Moisture  
Dew Point 55 °F    
Average Humidity 63    
Maximum Humidity 100    
Minimum Humidity 31    
Precipitation  
Precipitation 0.00 in - - ()
Sea Level Pressure  
Sea Level Pressure 29.97 in    
Wind  
Wind Speed 3 mph ()    
Max Wind Speed 14 mph    
Max Gust Speed -    
Visibility 8.7 miles    
Events      
Averages and records for this station are not official NWS values.
T = Trace of Precipitation, MM = Missing Value Source: Averaged Metar Reports

Daily Weather History Graph

Daily Weather History Graph

Search for Another Location

Airport or City:

Trip Planner

Search our weather history database for the weather conditions in past years. The results will help you decide how hot, cold, wet, or windy it might be!

Date:

Astronomy

Oct. 01, 2012 Rise Set
Actual Time 7:37 AM CDT 7:33 PM CDT
Civil Twilight 7:15 AM CDT 7:55 PM CDT
Nautical Twilight 6:49 AM CDT 8:21 PM CDT
Astronomical Twilight 6:23 AM CDT 8:46 PM CDT
Moon 8:32 PM CDT (10/1) 8:50 AM CDT (10/1)
Length of Visible Light 12h 40m
Length of Day
11h 56m
Full, 98% of the Moon is Illuminated
Oct 1
Full
Oct 8
Last Quarter
Oct 15
New
Oct 21
First Quarter
Oct 29
Full

Hourly Weather History & Observations

Time (CDT) Temp. Heat Index Dew Point Humidity Pressure Visibility Wind Dir Wind Speed Gust Speed Precip Events Conditions
12:41 AM 64.4 °F - 64.4 °F 100% 29.70 in 8.0 mi Calm Calm - N/A   Mostly Cloudy
1:44 AM 62.6 °F - 62.6 °F 100% 30.15 in 8.0 mi North 6.9 mph - N/A   Mostly Cloudy
3:43 AM 64.4 °F - 62.6 °F 94% 29.65 in 8.0 mi NE 6.9 mph - N/A   Scattered Clouds
4:42 AM 62.6 °F - 62.6 °F 100% 30.09 in 8.0 mi ENE 5.8 mph - N/A   Scattered Clouds
5:44 AM 62.6 °F - 60.8 °F 94% 30.12 in 8.0 mi Calm Calm - N/A   Scattered Clouds
6:43 AM 60.8 °F - 60.8 °F 100% 29.74 in 8.0 mi Calm Calm - N/A   Scattered Clouds
7:42 AM 60.8 °F - 60.8 °F 100% 30.15 in 8.0 mi Calm Calm - N/A   Scattered Clouds
8:47 AM 66.2 °F - 60.8 °F 83% 30.18 in 8.0 mi NE 6.9 mph - N/A   Scattered Clouds
9:52 AM 71.6 °F - 59.0 °F 64% 29.82 in 7.0 mi Calm Calm - N/A   Scattered Clouds
10:44 AM 75.2 °F - 55.4 °F 50% 30.21 in 8.0 mi NNE 6.9 mph - N/A   Scattered Clouds
12:48 PM 78.8 °F - 55.4 °F 44% 29.88 in 10.0 mi Calm Calm - N/A   Scattered Clouds
1:43 PM 82.4 °F 81.7 °F 55.4 °F 39% 30.12 in 10.0 mi Calm Calm - N/A   Scattered Clouds
2:40 PM 84.2 °F 83.0 °F 55.4 °F 37% 30.09 in 10.0 mi West 6.9 mph - N/A   Scattered Clouds
3:41 PM 84.2 °F 82.8 °F 53.6 °F 35% 29.60 in 10.0 mi West 5.8 mph - N/A   Scattered Clouds
4:46 PM 86.0 °F - 51.8 °F 31% 30.06 in 10.0 mi SW 5.8 mph - N/A   Scattered Clouds
5:44 PM 78.8 °F - 51.8 °F 39% 30.03 in 10.0 mi ENE 4.6 mph - N/A   Scattered Clouds
6:43 PM 82.4 °F - 50.0 °F 32% 29.61 in 10.0 mi ENE 4.6 mph - N/A   Scattered Clouds
7:40 PM 75.2 °F - 42.8 °F 31% 30.06 in 10.0 mi North 6.9 mph - N/A   Scattered Clouds
9:42 PM 64.4 °F - 42.8 °F 45% 29.75 in 8.0 mi North 6.9 mph - N/A   Scattered Clouds
10:50 PM 60.8 °F - 44.6 °F 55% 30.13 in 8.0 mi NE 4.6 mph - N/A   Scattered Clouds
11:46 PM 60.8 °F - 37.4 °F 42% 30.15 in 8.0 mi NNE 13.8 mph - N/A   Scattered Clouds